GW0963 Weather Reports


Display with metric or nautical units.
time (UTC)temp
F
wind
direction
speed
MPH
gust
MPH
rain 1hr
in
rain 24hr
in
rain mn
in
humidity
%
barometer
mb
20260503054923 51 73 2.0 3.0 0.00 0.00 0.00 56 1008.9
20260503054419 51 78 3.0 5.0 0.00 0.00 0.00 56 1008.6
20260503053917 51 64 3.0 4.0 0.00 0.00 0.00 55 1009.0
20260503053415 51 84 4.0 5.0 0.00 0.00 0.00 55 1009.0
20260503052911 51 110 5.0 5.0 0.00 0.00 0.00 55 1008.9
20260503052408 51 94 4.0 4.0 0.00 0.00 0.00 54 1009.0
20260503051904 51 116 4.0 5.0 0.00 0.00 0.00 54 1009.1
20260503051400 51 133 4.0 4.0 0.00 0.00 0.00 54 1009.2
20260503050858 51 102 4.0 9.0 0.00 0.00 0.00 54 1009.2
20260503050354 51 105 3.0 4.0 0.00 0.00 0.00 55 1009.2
20260503045851 51 119 3.0 5.0 0.00 0.00 0.00 55 1009.2
20260503045349 51 104 4.0 5.0 0.00 0.00 0.00 55 1009.3
20260503044845 51 109 3.0 5.0 0.00 0.00 0.00 55 1009.2
20260503044342 50 110 2.0 5.0 0.00 0.00 0.00 55 1009.3
20260503043839 51 104 2.0 4.0 0.00 0.00 0.00 55 1009.2
20260503043336 50 121 1.0 3.0 0.00 0.00 0.00 56 1009.4
20260503042832 51 112 2.0 2.0 0.00 0.00 0.00 55 1009.3
20260503042329 51 123 3.0 4.0 0.00 0.00 0.00 53 1009.6
20260503041825 52 97 2.0 2.0 0.00 0.00 0.00 53 1009.5
20260503041323 52 161 2.0 4.0 0.00 0.00 0.00 51 1009.6
20260503040821 52 113 2.0 3.0 0.00 0.00 0.00 50 1009.5
20260503040318 52 154 2.0 3.0 0.00 0.00 0.00 49 1009.6
20260503035815 52 131 1.0 3.0 0.00 0.00 0.00 49 1009.6
20260503035312 53 189 1.0 3.0 0.00 0.00 0.00 49 1009.6
20260503034809 53 155 2.0 6.0 0.00 0.00 0.00 49 1009.8
20260503034306 54 147 3.0 4.0 0.00 0.00 0.00 48 1009.7
20260503033803 54 173 2.0 5.0 0.00 0.00 0.00 47 1009.9
20260503033300 54 135 1.0 4.0 0.00 0.00 0.00 48 1009.8
20260503032759 54 169 2.0 4.0 0.00 0.00 0.00 47 1009.9
20260503032257 54 180 1.0 2.0 0.00 0.00 0.00 47 1010.0
20260503031754 54 128 0.0 3.0 0.00 0.00 0.00 46 1010.1
20260503031252 54 173 0.0 3.0 0.00 0.00 0.00 46 1010.0
20260503030748 54 190 3.0 4.0 0.00 0.00 0.00 46 1010.2
20260503030245 54 174 1.0 5.0 0.00 0.00 0.00 46 1010.3
20260503025741 54 183 0.0 3.0 0.00 0.00 0.00 46 1010.5
20260503025239 53 183 0.0 2.0 0.00 0.00 0.00 46 1010.4
20260503024736 53 177 2.0 5.0 0.00 0.00 0.00 46 1010.3
20260503024233 53 156 1.0 4.0 0.00 0.00 0.00 46 1010.5
20260503023729 53 162 1.0 2.0 0.00 0.00 0.00 47 1010.6
20260503023226 53 171 1.0 2.0 0.00 0.00 0.00 47 1010.3
20260503022722 53 149 1.0 3.0 0.00 0.00 0.00 47 1010.4
20260503022217 53 148 1.0 3.0 0.00 0.00 0.00 47 1010.6
20260503021714 53 135 2.0 3.0 0.00 0.00 0.00 48 1010.6
20260503021210 53 137 2.0 3.0 0.00 0.00 0.00 47 1010.4
20260503020708 54 160 2.0 2.0 0.00 0.00 0.00 46 1010.6
20260503020205 54 129 1.0 2.0 0.00 0.00 0.00 45 1010.6
20260503015702 54 168 0.0 2.0 0.00 0.00 0.00 45 1010.9
20260503015159 54 192 3.0 4.0 0.00 0.00 0.00 45 1010.5
20260503014654 54 173 2.0 3.0 0.00 0.00 0.00 44 1010.8
20260503014152 55 203 2.0 4.0 0.00 0.00 0.00 44 1010.8
20260503013649 55 208 1.0 4.0 0.00 0.00 0.00 44 1010.9
20260503013147 55 254 1.0 4.0 0.00 0.00 0.00 43 1010.7
20260503012644 55 230 3.0 5.0 0.00 0.00 0.00 43 1011.0
20260503012141 55 240 1.0 5.0 0.00 0.00 0.00 42 1010.7
20260503011637 55 242 3.0 6.0 0.00 0.00 0.00 42 1010.9
20260503011135 56 258 3.0 9.0 0.00 0.00 0.00 41 1011.0
20260503010631 56 254 2.0 8.0 0.00 0.00 0.00 41 1011.0
20260503010128 56 256 3.0 8.0 0.00 0.00 0.00 41 1011.0
20260503005625 56 287 3.0 7.0 0.00 0.00 0.00 40 1010.8
20260503005122 56 243 4.0 7.0 0.00 0.00 0.00 40 1011.0
20260503004618 56 282 0.0 7.0 0.00 0.00 0.00 39 1010.9
20260503004117 57 225 3.0 11.0 0.00 0.00 0.00 38 1011.0
20260503003614 57 272 6.0 16.0 0.00 0.00 0.00 37 1011.0
20260503003111 57 239 5.0 10.0 0.00 0.00 0.00 37 1011.1
20260503002608 57 263 3.0 10.0 0.00 0.00 0.00 36 1011.1
20260503002104 57 247 6.0 11.0 0.00 0.00 0.00 35 1011.1
20260503001600 58 228 6.0 7.0 0.00 0.00 0.00 35 1011.1
20260503001058 58 241 5.0 10.0 0.00 0.00 0.00 34 1011.4
20260503000555 58 267 10.0 12.0 0.00 0.00 0.00 33 1011.3
20260503000052 58 244 6.0 14.0 0.00 0.00 0.00 33 1011.4
20260502235548 58 218 5.0 15.0 0.00 0.00 0.00 33 1011.4
20260502235047 58 299 4.0 13.0 0.00 0.00 0.00 33 1011.3
20260502234542 58 268 10.0 16.0 0.00 0.00 0.00 33 1011.7
20260502234040 58 235 8.0 15.0 0.00 0.00 0.00 33 1011.6
20260502233540 58 252 7.0 16.0 0.00 0.00 0.00 33 1011.8
20260502233038 59 271 9.0 22.0 0.00 0.00 0.00 33 1011.4
20260502232534 59 263 7.0 12.0 0.00 0.00 0.00 32 1011.4
20260502232031 59 263 7.0 21.0 0.00 0.00 0.00 32 1011.7
20260502231528 59 280 9.0 23.0 0.00 0.00 0.00 32 1011.8
20260502231026 59 234 9.0 17.0 0.00 0.00 0.00 33 1011.6
20260502230524 59 305 4.0 14.0 0.00 0.00 0.00 33 1011.8
20260502230022 60 273 7.0 16.0 0.00 0.00 0.00 32 1011.8
20260502225517 59 283 7.0 10.0 0.00 0.00 0.00 33 1011.7
20260502225015 59 264 5.0 10.0 0.00 0.00 0.00 33 1011.9
20260502224511 58 210 3.0 10.0 0.00 0.00 0.00 34 1011.8
20260502224008 58 334 4.0 15.0 0.00 0.00 0.00 34 1011.9
20260502223506 59 249 7.0 16.0 0.00 0.00 0.00 34 1011.9
20260502223004 60 241 6.0 12.0 0.00 0.00 0.00 33 1011.9
20260502222500 59 278 10.0 19.0 0.00 0.00 0.00 33 1011.9
20260502221956 59 228 15.0 15.0 0.00 0.00 0.00 33 1012.0
20260502221452 59 239 11.0 17.0 0.00 0.00 0.00 32 1012.2
20260502220950 59 287 9.0 20.0 0.00 0.00 0.00 33 1012.0
20260502220445 60 266 8.0 15.0 0.00 0.00 0.00 32 1012.1
20260502215942 60 236 15.0 17.0 0.00 0.00 0.00 32 1012.1
20260502215440 59 233 4.0 15.0 0.00 0.00 0.00 32 1012.2
20260502214937 60 289 8.0 20.0 0.00 0.00 0.00 32 1012.3
20260502214433 59 263 10.0 21.0 0.00 0.00 0.00 32 1012.2
20260502213931 60 271 11.0 16.0 0.00 0.00 0.00 31 1012.1
20260502213427 60 223 8.0 20.0 0.00 0.00 0.00 31 1012.3
20260502212926 59 227 11.0 14.0 0.00 0.00 0.00 31 1012.2
20260502212424 60 253 13.0 18.0 0.00 0.00 0.00 31 1012.3
20260502211921 59 261 11.0 16.0 0.00 0.00 0.00 31 1012.3
20260502211417 59 285 5.0 12.0 0.00 0.00 0.00 32 1012.4
20260502210914 59 272 6.0 19.0 0.00 0.00 0.00 31 1012.6
20260502210411 58 283 13.0 19.0 0.00 0.00 0.00 32 1012.6
20260502205909 59 232 3.0 16.0 0.00 0.00 0.00 33 1012.4
20260502205404 58 253 5.0 14.0 0.00 0.00 0.00 33 1012.7
20260502204902 59 298 15.0 20.0 0.00 0.00 0.00 32 1012.8
20260502204359 59 198 4.0 25.0 0.00 0.00 0.00 32 1012.8
20260502203856 58 237 23.0 23.0 0.00 0.00 0.00 31 1012.8
20260502203354 58 236 6.0 15.0 0.00 0.00 0.00 31 1013.0
20260502202849 58 235 5.0 22.0 0.00 0.00 0.00 32 1012.8
20260502202347 57 248 3.0 9.0 0.00 0.00 0.00 35 1013.1
20260502201844 57 278 11.0 19.0 0.00 0.00 0.00 34 1013.2
20260502201340 58 237 8.0 18.0 0.00 0.00 0.00 34 1013.1
20260502200837 60 212 15.0 19.0 0.00 0.00 0.00 32 1013.2
20260502200332 57 224 10.0 18.0 0.00 0.00 0.00 34 1013.3
20260502195831 57 211 11.0 15.0 0.00 0.00 0.00 34 1013.3
20260502195327 57 278 6.0 14.0 0.00 0.00 0.00 34 1013.2
20260502194824 57 293 16.0 16.0 0.00 0.00 0.00 33 1013.3
20260502194321 58 238 8.0 18.0 0.00 0.00 0.00 33 1013.5
20260502193817 58 261 6.0 18.0 0.00 0.00 0.00 32 1013.7
20260502193314 59 235 9.0 12.0 0.00 0.00 0.00 32 1013.6
20260502192809 57 267 7.0 20.0 0.00 0.00 0.00 33 1013.7
20260502192307 57 285 8.0 9.0 0.00 0.00 0.00 32 1013.8
20260502191804 57 286 13.0 15.0 0.00 0.00 0.00 34 1013.7
20260502191302 56 240 8.0 11.0 0.00 0.00 0.00 34 1013.9
20260502190759 56 278 6.0 13.0 0.00 0.00 0.00 33 1014.2
20260502190256 57 259 12.0 20.0 0.00 0.00 0.00 33 1014.1
20260502185751 57 295 15.0 23.0 0.00 0.00 0.00 32 1014.2
20260502185247 56 232 9.0 18.0 0.00 0.00 0.00 34 1014.1
20260502184744 56 300 6.0 20.0 0.00 0.00 0.00 34 1014.1
20260502184239 56 281 6.0 9.0 0.00 0.00 0.00 34 1014.2
20260502183737 56 287 8.0 14.0 0.00 0.00 0.00 33 1014.3
20260502183232 55 281 8.0 11.0 0.00 0.00 0.00 34 1014.5
20260502182728 56 266 7.0 25.0 0.00 0.00 0.00 34 1014.7
20260502182223 55 230 5.0 16.0 0.00 0.00 0.00 33 1014.8
20260502181720 56 279 6.0 18.0 0.00 0.00 0.00 34 1014.6
20260502181220 56 230 6.0 14.0 0.00 0.00 0.00 34 1014.7
20260502180716 55 234 5.0 19.0 0.00 0.00 0.00 34 1014.8
20260502180214 55 230 7.0 14.0 0.00 0.00 0.00 35 1014.6
20260502170138 53 271 5.0 17.0 0.00 0.00 0.00 36 1015.5
20260502164124 52 302 3.0 9.0 0.00 0.00 0.00 39 1015.6
20260502163621 52 78 4.0 12.0 0.00 0.00 0.00 37 1015.6
20260502163117 52 235 8.0 12.0 0.00 0.00 0.00 37 1016.0
20260502162614 52 207 8.0 8.0 0.00 0.00 0.00 37 1015.8
20260502162111 53 245 7.0 9.0 0.00 0.00 0.00 37 1015.8
20260502161608 51 323 6.0 16.0 0.00 0.00 0.00 37 1016.0
20260502161105 52 218 5.0 8.0 0.00 0.00 0.00 38 1016.2
20260502160603 51 247 5.0 9.0 0.00 0.00 0.00 39 1016.1
20260502152016 51 218 2.0 8.0 0.00 0.00 0.00 39 1016.5
20260502151513 50 264 2.0 6.0 0.00 0.00 0.00 40 1016.4
20260502151010 50 110 0.0 6.0 0.00 0.00 0.00 39 1016.5
20260502150508 51 347 1.0 5.0 0.00 0.00 0.00 39 1016.6
20260502130353 42 97 3.0 4.0 0.00 0.00 0.00 65 1017.7
20260502123336 38 100 3.0 4.0 0.00 0.00 0.00 74 1017.6
20260502122833 38 111 2.0 4.0 0.00 0.00 0.00 76 1017.6
20260502122328 37 89 0.0 2.0 0.00 0.00 0.00 80 1017.7
20260502121827 35 83 2.0 2.0 0.00 0.00 0.00 83 1017.8
20260502121324 34 68 0.0 2.0 0.00 0.00 0.00 84 1017.7
20260502120821 33 89 0.0 1.0 0.00 0.00 0.00 84 1017.7
20260502120317 33 89 0.0 2.0 0.00 0.00 0.00 85 1017.6
20260502115815 33 104 1.0 3.0 0.00 0.00 0.00 85 1017.7
20260502115312 32 113 1.0 4.0 0.00 0.00 0.00 86 1017.7
20260502114808 32 114 2.0 4.0 0.00 0.00 0.00 86 1017.6
20260502114305 32 124 3.0 5.0 0.00 0.00 0.00 87 1017.2
20260502113802 32 89 3.0 4.0 0.00 0.00 0.00 87 1017.5
20260502113300 32 96 2.0 3.0 0.00 0.00 0.00 88 1017.6
20260502112757 31 76 1.0 3.0 0.00 0.00 0.00 90 1017.5
20260502112255 30 46 0.0 2.0 0.00 0.00 0.00 90 1017.6
20260502111752 30 60 2.0 2.0 0.00 0.00 0.00 90 1017.7
20260502111249 29 66 0.0 2.0 0.00 0.00 0.00 90 1017.6
20260502110747 28 77 0.0 2.0 0.00 0.00 0.00 91 1017.5
20260502110244 28 347 0.0 3.0 0.00 0.00 0.00 91 1017.5
20260502105743 28 284 1.0 2.0 0.00 0.00 0.00 91 1017.2
20260502105238 28 296 0.0 2.0 0.00 0.00 0.00 91 1017.6
20260502104736 28 44 0.0 2.0 0.00 0.00 0.00 91 1017.7
20260502104233 28 105 0.0 2.0 0.00 0.00 0.00 91 1017.5
20260502103731 27 84 1.0 2.0 0.00 0.00 0.00 90 1017.7
20260502103228 28 95 0.0 3.0 0.00 0.00 0.00 90 1017.7
20260502102725 28 65 0.0 2.0 0.00 0.00 0.00 90 1017.6
20260502102222 28 71 1.0 3.0 0.00 0.00 0.00 90 1017.5
20260502101720 28 48 1.0 2.0 0.00 0.00 0.00 90 1017.6
20260502101218 28 77 0.0 2.0 0.00 0.00 0.00 90 1017.6
20260502100715 28 34 0.0 3.0 0.00 0.00 0.00 90 1017.6
20260502100214 28 42 1.0 3.0 0.00 0.00 0.00 90 1017.5
20260502091148 29 113 0.0 2.0 0.00 0.00 0.00 87 1017.7
20260502090645 29 86 1.0 2.0 0.00 0.00 0.00 87 1017.7
20260502090142 29 76 0.0 2.0 0.00 0.00 0.00 87 1017.5
20260502080104 30 342 0.0 2.0 0.00 0.00 0.00 84 1017.5
20260502071038 31 0 0.0 1.0 0.00 0.00 0.00 84 1017.9
20260502070535 31 336 0.0 1.0 0.00 0.00 0.00 84 1017.7
20260502070033 31 32 0.0 1.0 0.00 0.00 0.00 84 1017.7
20260502065532 31 315 0.0 1.0 0.00 0.00 0.00 84 1017.8
20260502065029 30 89 0.0 1.0 0.00 0.00 0.00 85 1017.8
20260502064527 30 59 0.0 2.0 0.00 0.00 0.00 83 1017.9
20260502064024 31 48 1.0 2.0 0.00 0.00 0.00 83 1017.9
20260502063522 31 26 1.0 2.0 0.00 0.00 0.00 83 1017.9
20260502063020 31 69 1.0 2.0 0.00 0.00 0.00 82 1018.0
20260502062516 31 63 0.0 2.0 0.00 0.00 0.00 82 1018.0
20260502062015 31 63 0.0 2.0 0.00 0.00 0.00 82 1018.1
20260502061512 32 31 0.0 2.0 0.00 0.00 0.00 81 1018.1